GW3542 Weather Reports


time (UTC)temp
F
wind
direction
speed
knots
gust
knots
rain 1hr
in
rain 24hr
in
rain mn
in
humidity
%
barometer
mb
20260503225558 63 13 0.0 1.7 0.00 0.00 0.00 30 1015.9
20260503224545 63 326 1.7 5.2 0.00 0.00 0.00 29 1015.8
20260503223533 63 314 0.9 6.1 0.00 0.00 0.00 29 1015.9
20260503222518 64 348 0.9 2.6 0.00 0.00 0.00 29 1015.8
20260503221728 64 326 1.7 3.5 0.00 0.00 0.00 28 1015.8
20260503220553 64 351 0.9 2.6 0.00 0.00 0.00 28 1015.8
20260503215541 64 305 1.7 3.5 0.00 0.00 0.00 28 1015.7
20260503214547 65 291 1.7 3.5 0.00 0.00 0.00 28 1015.8
20260503213616 65 323 1.7 5.2 0.00 0.00 0.00 28 1015.7
20260503212601 65 326 1.7 3.5 0.00 0.00 0.00 29 1015.8
20260503211541 65 331 0.9 5.2 0.00 0.00 0.00 28 1015.9
20260503210527 65 314 0.9 3.5 0.00 0.00 0.00 28 1015.8
20260503205616 64 339 1.7 5.2 0.00 0.00 0.00 29 1015.7
20260503204606 64 289 2.6 8.7 0.00 0.00 0.00 28 1015.7
20260503203551 65 299 2.6 7.8 0.00 0.00 0.00 28 1015.7
20260503202536 65 345 1.7 3.5 0.00 0.00 0.00 30 1015.8
20260503201523 64 306 2.6 6.1 0.00 0.00 0.00 29 1016.0
20260503200611 65 327 1.7 6.1 0.00 0.00 0.00 31 1015.9
20260503195639 64 353 1.7 5.2 0.00 0.00 0.00 31 1016.1
20260503194546 64 310 1.7 8.7 0.00 0.00 0.00 32 1016.1
20260503193533 64 360 2.6 11.3 0.00 0.00 0.00 31 1016.2
20260503192520 65 342 1.7 5.2 0.00 0.00 0.00 32 1016.5
20260503191607 64 313 1.7 5.2 0.00 0.00 0.00 32 1016.6
20260503190551 63 273 2.6 5.2 0.00 0.00 0.00 33 1016.7
20260503185539 62 300 3.5 7.0 0.00 0.00 0.00 34 1016.8
20260503184527 62 303 3.5 8.7 0.00 0.00 0.00 34 1016.8
20260503183614 62 300 3.5 12.2 0.00 0.00 0.00 34 1016.9
20260503182602 63 333 2.6 6.1 0.00 0.00 0.00 33 1017.0
20260503181609 62 311 3.5 7.8 0.00 0.00 0.00 34 1017.0
20260503180534 62 297 2.6 7.8 0.00 0.00 0.00 34 1017.1
20260503175522 62 25 1.7 7.0 0.00 0.00 0.00 34 1017.1
20260503174609 62 329 2.6 7.8 0.00 0.00 0.00 34 1017.1
20260503173558 59 343 2.6 8.7 0.00 0.01 0.00 36 1017.3
20260503172544 61 276 2.6 11.3 0.00 0.01 0.00 36 1017.4
20260503171527 60 334 1.7 6.1 0.00 0.02 0.00 37 1017.4
20260503170615 59 312 2.6 8.7 0.00 0.02 0.00 38 1017.5
20260503150536 57 309 3.5 12.2 0.00 0.06 0.00 37 1018.2
20260503130554 54 306 3.5 13.0 0.00 0.06 0.00 43 1017.6
20260503110605 51 1 1.7 7.0 0.00 0.06 0.00 49 1016.3
20260503081557 51 319 0.0 2.6 0.00 0.06 0.00 65 1013.6
20260503080538 50 301 0.9 3.5 0.00 0.06 0.00 69 1013.4
20260503072557 50 0.0 0.0 0.00 0.06 0.00 74 1013.0
20260503071521 49 291 0.0 1.7 0.00 0.06 0.00 74 1013.0
20260503070612 49 0.0 0.0 0.00 0.06 0.00 74 1012.8
20260503054518 51 302 0.0 1.7 0.00 0.06 0.00 62 1012.3
20260503053558 52 331 0.0 0.9 0.00 0.06 0.00 61 1012.4
20260503052546 52 313 0.9 2.6 0.00 0.06 0.00 60 1012.5
20260503051534 53 297 0.0 1.7 0.00 0.06 0.00 60 1012.5
20260503050520 53 301 0.9 1.7 0.00 0.06 0.00 59 1012.5
20260503045607 54 316 0.9 1.7 0.00 0.06 0.00 59 1012.5
20260503044553 54 302 0.9 1.7 0.00 0.06 0.00 59 1012.6
20260503043536 54 291 0.9 2.6 0.00 0.06 0.00 59 1012.6
20260503042542 54 296 0.9 3.5 0.00 0.06 0.00 60 1012.5
20260503041652 54 298 0.9 2.6 0.00 0.06 0.00 60 1012.6
20260503040557 54 300 0.0 3.5 0.00 0.06 0.00 61 1012.5
20260503035543 55 302 0.9 3.5 0.00 0.06 0.06 60 1012.6
20260503034525 55 300 0.9 3.5 0.00 0.06 0.06 60 1012.5
20260503033613 55 298 0.9 2.6 0.00 0.06 0.06 60 1012.3
20260503032555 55 299 0.9 2.6 0.00 0.06 0.06 60 1012.3
20260503031624 55 303 0.0 1.7 0.00 0.06 0.06 59 1012.2
20260503030528 55 299 0.9 2.6 0.00 0.06 0.06 59 1012.3
20260503025616 55 303 0.0 3.5 0.00 0.06 0.06 59 1012.4
20260503024559 55 302 0.9 3.5 0.00 0.06 0.06 58 1012.6
20260503023546 55 299 0.9 1.7 0.00 0.06 0.06 59 1012.5
20260503022528 55 305 0.9 1.7 0.00 0.06 0.06 58 1012.4
20260503021616 55 301 0.9 1.7 0.00 0.06 0.06 58 1012.5
20260503020602 55 337 0.9 1.7 0.00 0.06 0.06 57 1012.5
20260503015551 56 318 0.0 1.7 0.00 0.06 0.06 57 1012.4
20260503014558 56 313 0.9 2.6 0.00 0.06 0.06 56 1012.4
20260503013522 56 347 0.0 1.7 0.00 0.06 0.06 55 1012.2
20260503012630 56 13 0.9 3.5 0.00 0.06 0.06 55 1011.9
20260503011558 56 7 0.9 2.6 0.00 0.06 0.06 55 1011.8
20260503010543 56 346 0.0 1.7 0.00 0.06 0.06 55 1012.0
20260503005610 55 321 0.9 2.6 0.00 0.06 0.06 54 1012.0
20260503004629 55 338 0.9 5.2 0.00 0.06 0.06 55 1011.9
20260503003554 55 351 0.9 2.6 0.00 0.06 0.06 55 1011.6
20260503002541 55 329 0.9 3.5 0.00 0.06 0.06 55 1011.6
20260503001528 55 331 0.9 6.1 0.00 0.06 0.06 54 1011.5
20260503000616 56 11 1.7 5.2 0.00 0.06 0.06 53 1011.4
20260502235557 56 6 1.7 5.2 0.00 0.06 0.06 50 1011.3
20260502234536 56 15 1.7 7.0 0.00 0.06 0.06 46 1011.3
20260502233543 56 358 1.7 8.7 0.00 0.06 0.06 45 1011.2
20260502232609 56 45 1.7 7.0 0.00 0.06 0.06 41 1011.2
20260502231556 56 10 0.9 5.2 0.00 0.06 0.06 42 1011.2
20260502230542 56 12 0.9 3.5 0.00 0.06 0.06 45 1011.1